Orbital Elements at Epoch 2459000.5 (2020-May-31.0) TDB
Reference: JPL 8 (heliocentric ecliptic J2000)
Element | Value | Uncertainty (1-sigma) | Units |
e | .02246802023607584 | 7.6161e-08 | |
a | 2.714252575950053 | 5.2542e-08 | au |
q | 2.653268694147786 | 1.8733e-07 | au |
i | 1.671085484432064 | 7.9701e-06 | deg |
node | 72.78585355079449 | 0.00026687 | deg |
peri | 66.24723732654269 | 0.00035837 | deg |
M | 256.1356871066413 | 0.00024421 | deg |
tp | 2459471.735138034445 (2021-Sep-14.23513803) | 0.0011159 | TDB |
period | 1633.329533182208 4.47 | 4.7426e-05 1.298e-07 | d yr |
n | .2204086760732316 | 6.3999e-09 | deg/d |
Q | 2.77523645775232 | 5.3722e-08 | au |
|
| | Orbit Determination Parameters
Additional Information
|